Volver al catálogo

CZ-2C R/B

ActivoHEO
NORAD 28448·ROCKET BODY·🇨🇳 China

Lanzado Jul 25, 2004 desde Taiyuan Satellite Launch Center

Loading…

Próximos Pases (próximas 24 horas)

TLE

ActualizadoSource: Space-Track

Época: Sep 13, 2026, 20:07 UTC

1 28448U 04029B   26256.83850760  .00000375  00000-0  34204-3 0  9990
2 28448  88.0153 235.7766 7204107 191.7229 131.9628  2.33714732173644

Sigue CZ-2C R/B en tiempo real con AllMySat

Download on the App Store